Theta_e
305 305 305 304 303 303 302 302 299 302 303 306 309 310 313 316 319 318 320 322 324 325 332 332 333 336 340 342 346 347 351 350 354 360 361 361 362 362 363 362 362 364 363 364
302 305 304 302 304 303 302 302 302 302 301 308 310 313 313 315 315 317 319 319 322 328 329 329 331 331 333 335 342 346 345 352 352 354 359 361 362 360 361 362 362 362 363 362
298 304 303 299 303 304 304 305 304 299 304 308 308 310 312 313 314 314 317 323 327 328 329 331 330 331 331 333 336 345 344 348 355 355 354 360 361 363 363 360 362 361 362 363
298 301 292 303 308 306 303 305 306 305 306 309 311 312 314 315 314 316 319 319 323 326 328 331 332 332 334 334 335 338 344 345 353 357 353 354 354 358 359 361 360 361 361 362
295 295 299 301 304 303 302 301 307 308 309 311 312 312 312 316 318 317 320 320 321 324 326 330 331 335 333 334 336 336 340 344 351 355 354 353 352 354 355 359 359 360 361 361
297 291 289 301 306 309 307 297 309 309 308 308 310 303 308 317 318 318 319 321 322 323 324 329 333 333 330 330 335 335 338 346 350 352 353 353 356 357 358 357 352 354 355 357
297 295 298 307 309 310 296 300 311 311 310 309 307 311 315 318 319 320 321 322 324 323 325 329 331 330 328 330 331 337 340 346 348 352 353 353 353 352 352 350 349 350 349 349
297 295 292 308 307 301 308 312 312 312 312 311 312 314 316 317 316 318 320 321 323 322 324 327 327 325 325 325 330 330 331 341 342 349 352 353 352 351 353 351 347 347 349 346
301 300 310 310 309 312 314 313 312 312 312 312 310 308 311 315 317 318 319 321 321 320 318 317 315 316 316 321 325 324 326 336 343 345 344 352 351 351 350 351 341 340 339 337
304 306 308 311 312 314 316 314 313 313 312 308 303 302 302 303 305 306 309 309 312 310 310 308 308 309 308 317 320 320 321 332 340 337 338 340 341 347 346 345 342 340 336 336
303 307 308 308 310 316 315 315 313 312 308 302 300 299 299 299 300 302 303 304 305 306 306 306 305 305 308 311 317 319 326 330 331 333 330 321 319 324 324 320 329 336 337 338
302 309 310 310 313 318 314 312 311 306 305 303 301 299 300 299 300 300 300 303 302 305 306 302 303 305 308 314 317 319 321 323 330 330 331 327 323 318 308 308 303 303 302 321
304 312 313 313 318 318 314 312 309 306 304 301 301 302 301 300 302 302 302 302 302 304 306 305 304 305 307 315 318 316 314 317 317 322 330 332 329 327 322 312 303 301 300 299
313 313 310 311 313 316 315 311 310 308 305 304 305 308 305 305 306 308 308 307 307 305 305 306 305 304 308 314 314 314 315 312 319 317 317 329 331 331 330 327 324 321 305 307
314 314 312 312 316 315 315 312 310 308 306 305 306 306 308 305 305 308 311 311 309 309 307 307 308 306 309 311 310 312 310 311 312 316 317 316 319 319 320 325 325 323 320 311
312 312 311 309 312 313 313 311 310 310 308 306 306 308 310 307 308 310 310 312 307 307 309 309 310 310 311 311 308 311 311 313 313 314 317 314 314 316 317 317 319 316 316 314
310 309 309 308 310 312 312 311 310 310 310 310 310 310 311 310 310 311 312 313 315 315 312 311 311 313 312 312 312 311 310 310 314 312 312 315 313 314 315 317 319 318 318 312
313 312 311 310 310 311 311 310 310 310 311 310 313 312 311 312 312 313 315 315 317 318 315 315 315 315 315 315 311 314 310 311 311 311 311 310 312 313 313 316 316 316 317 319
313 312 311 311 312 312 311 310 310 311 313 313 312 312 313 314 315 317 318 318 318 317 319 320 320 318 317 317 315 311 311 311 311 310 314 312 314 313 313 313 314 315 315 315
312 312 311 311 311 312 311 312 311 311 312 314 313 314 314 314 318 317 313 313 319 317 323 319 321 322 320 319 315 309 313 314 313 314 312 312 312 314 315 308 312 313 313 314
312 312 311 311 312 312 312 314 313 312 313 313 312 313 314 318 319 320 318 312 322 322 318 318 318 315 314 314 313 313 313 315 313 314 314 315 315 314 314 313 313 314 313 314
313 312 312 312 312 313 313 313 313 313 313 314 315 318 316 317 318 318 319 319 319 311 315 316 312 313 311 312 312 314 313 314 314 315 315 316 314 313 313 314 313 313 313 315
315 314 314 313 313 314 314 314 315 314 314 314 316 317 316 314 315 313 312 318 316 312 315 314 302 313 311 312 314 316 316 316 316 315 315 316 314 314 313 313 313 314 313 313
316 315 315 316 316 315 314 316 315 317 318 317 318 321 319 314 314 315 316 314 312 311 314 312 309 310 306 314 314 316 316 317 317 317 316 307 313 313 313 313 312 313 314 313
317 318 317 317 316 315 320 320 318 318 318 319 319 322 319 316 317 319 317 318 309 312 316 307 311 309 311 313 313 313 314 314 316 314 314 314 313 313 313 314 313 313 312 313
319 317 317 320 318 318 317 316 314 315 315 314 315 316 317 319 319 317 321 316 318 314 316 317 313 311 312 313 312 312 312 313 313 313 312 314 314 313 312 311 310 310 310 310
322 312 318 316 318 318 318 317 316 315 314 315 315 318 317 317 317 315 312 316 316 315 315 316 316 312 314 314 313 314 314 314 306 312 312 311 311 310 310 309 310 310 309 308
Wind_Speed
13 16 16 16 16 16 16 16 16 16 20 21 19 17 17 18 18 16 12 11 9 9 8 9 12 15 16 16 14 15 15 13 11 18 17 17 17 17 16 16 15 15 15 14
12 15 16 17 15 14 16 17 17 18 19 17 15 16 17 15 16 16 16 18 17 9 10 10 10 12 14 17 17 14 14 14 10 12 15 16 14 14 16 16 17 15 15 16
13 14 16 13 10 10 11 7 11 12 17 19 19 17 14 15 16 16 15 13 14 12 10 8 9 11 14 14 18 15 14 15 14 7 9 14 16 15 13 16 15 16 16 16
11 12 13 10 7 7 10 11 16 19 19 18 18 18 17 14 14 16 11 13 13 11 13 10 9 11 13 13 14 17 15 15 14 11 7 8 16 14 13 11 13 13 14 17
9 11 13 10 16 9 9 9 12 12 14 17 19 20 17 17 15 17 16 13 12 13 13 14 11 10 13 17 14 14 17 15 15 13 9 6 10 13 14 10 11 11 12 14
9 11 12 9 12 8 6 9 11 12 14 18 18 15 12 21 22 22 19 16 14 13 14 12 10 10 13 18 15 15 17 16 13 14 11 10 7 7 6 8 9 8 11 14
10 12 5 11 11 12 9 10 16 16 16 19 17 14 22 22 22 20 20 19 20 18 10 10 10 12 13 16 16 16 17 16 15 15 14 12 10 8 7 7 6 6 9 11
11 12 3 11 10 10 10 13 16 18 20 20 20 21 21 20 19 19 18 17 14 12 12 10 11 14 16 16 15 16 19 18 17 16 12 11 13 9 10 9 9 7 8 2
6 8 10 9 8 5 7 11 13 14 15 17 17 20 21 21 20 19 19 13 12 12 13 14 15 15 18 17 14 16 18 18 16 7 2 6 9 11 8 6 3 2 2 4
7 7 14 16 13 10 11 10 11 12 13 15 14 15 18 18 15 12 13 13 13 12 13 13 13 14 16 18 14 15 16 13 6 1 4 4 5 1 4 4 5 4 4 3
9 3 4 1 20 11 8 10 13 13 14 12 13 13 12 11 13 12 11 12 11 11 11 13 12 15 17 18 16 12 13 6 5 1 6 7 5 5 6 4 2 2 2 3
10 6 8 10 8 11 9 11 12 10 10 11 9 11 12 10 10 10 11 11 11 11 10 12 14 17 18 16 9 3 6 6 4 3 3 5 7 9 15 9 7 10 7 5
6 26 6 9 13 11 10 11 9 6 7 7 3 0 3 3 4 6 5 7 10 13 13 14 16 19 19 14 7 10 9 7 6 9 1 6 6 8 9 6 11 12 13 12
14 7 8 14 8 11 13 14 12 9 6 2 5 8 8 8 9 11 6 6 7 10 14 14 17 19 17 12 10 12 11 14 11 11 11 4 3 7 7 6 7 7 7 7
8 8 11 7 13 10 12 12 10 8 7 6 8 8 8 7 11 11 9 8 7 8 9 10 8 19 15 9 9 10 10 9 11 11 9 11 11 6 5 6 6 7 4 2
8 8 10 7 5 7 7 10 10 11 8 8 10 11 11 7 8 8 9 7 7 8 6 7 8 9 8 12 13 7 2 9 11 7 4 5 4 3 3 4 4 6 4 3
9 9 12 10 3 8 5 4 3 4 5 9 9 6 6 8 10 12 9 7 7 5 11 7 6 7 11 10 7 4 9 12 15 6 6 4 4 3 1 1 4 6 4 4
3 5 7 9 3 3 4 4 4 3 2 4 4 8 4 6 5 7 8 8 6 2 2 4 5 5 8 6 6 4 5 3 2 2 4 3 4 4 5 3 4 4 6 1
5 5 6 6 9 6 4 5 4 1 4 4 4 6 3 7 6 7 6 5 5 4 2 3 4 7 5 6 7 5 4 3 3 4 2 5 4 3 3 4 2 4 4 3
5 3 1 4 3 4 8 3 2 3 1 3 3 3 6 7 8 6 4 2 3 3 5 8 3 4 4 8 8 6 3 3 3 3 2 2 3 3 2 0 4 5 5 4
3 5 4 3 2 4 4 5 1 3 4 4 3 4 5 8 9 9 5 3 4 4 7 7 4 7 6 8 10 8 4 3 4 4 4 3 3 4 4 4 4 4 5 5
4 6 5 3 5 4 1 1 4 2 4 5 5 4 6 7 11 8 9 7 4 7 7 4 6 5 5 10 8 9 3 4 4 4 4 4 5 5 5 4 4 5 4 4
3 4 3 3 3 4 5 5 4 4 3 4 4 4 6 8 8 6 7 2 7 2 6 5 1 1 6 6 6 6 6 5 3 5 4 4 5 6 5 6 6 6 7 8
3 3 4 3 3 5 5 5 7 6 5 5 7 7 7 9 7 4 8 10 6 5 5 3 5 7 6 7 7 1 4 5 3 4 5 6 6 6 8 8 8 7 8 10
3 2 4 8 6 6 7 7 6 8 8 8 6 7 8 6 6 6 5 4 8 6 5 11 11 12 7 10 5 4 4 6 2 3 6 5 5 7 7 7 7 7 7 6
6 7 8 10 8 7 5 6 6 5 5 4 6 5 5 4 6 5 4 3 3 9 7 5 9 8 9 7 6 6 6 7 6 5 4 5 6 6 8 9 9 8 8 8
6 9 10 7 7 8 9 6 7 8 7 2 6 5 5 5 7 5 3 7 7 6 6 3 5 6 5 4 7 5 6 7 6 6 6 7 7 7 7 7 8 7 8 7
Wind_Direction
308 311 308 303 296 294 285 284 280 287 298 317 330 337 27 17 11 7 357 343 329 337 9 352 337 337 331 330 331 339 335 328 268 204 208 204 206 209 205 216 219 219 221 227
281 279 273 275 266 268 276 283 286 289 289 301 332 6 10 1 355 348 336 332 326 354 3 342 340 324 324 325 324 327 323 313 306 290 211 209 208 205 208 201 215 216 222 222
288 304 302 279 271 278 309 303 324 325 359 350 349 349 349 339 344 327 309 344 357 351 332 326 327 315 319 318 314 313 310 305 303 312 267 213 217 213 203 209 207 213 220 224
280 279 267 272 14 333 321 337 1 341 334 344 349 337 329 332 318 308 340 329 324 320 313 317 318 316 309 307 295 302 295 299 295 280 299 234 238 242 228 213 215 215 224 227
288 275 290 321 49 36 14 322 345 1 344 334 333 326 311 305 333 333 322 312 309 312 314 302 319 319 322 306 291 292 291 289 286 277 254 277 236 236 234 231 234 221 223 232
286 301 292 62 45 18 342 282 12 344 333 334 331 309 313 339 325 317 308 301 292 289 288 315 310 325 320 304 298 285 287 285 287 288 262 236 232 243 226 215 246 257 253 242
262 262 258 24 4 340 278 0 360 348 336 328 323 320 317 317 308 300 304 312 311 285 292 308 323 324 308 299 301 308 311 299 294 275 254 241 227 227 232 236 207 217 238 272
286 280 267 351 332 343 5 346 345 349 344 331 324 320 310 305 306 297 296 298 310 323 308 313 342 326 308 298 302 303 299 287 286 281 253 229 229 223 224 224 226 226 249 229
333 326 332 302 334 42 31 4 358 353 348 348 349 332 324 319 328 336 332 331 341 335 349 354 342 326 308 304 306 298 294 289 281 285 317 262 227 225 209 214 159 169 172 127
265 312 10 342 337 29 40 19 9 11 2 15 359 359 358 355 348 350 355 355 354 360 349 336 333 322 307 294 290 281 283 283 237 185 92 70 55 60 133 133 132 129 130 104
271 65 24 239 275 60 43 46 28 26 29 29 16 12 3 353 352 350 356 349 2 354 348 341 337 328 314 301 283 265 268 245 272 202 104 90 65 49 87 61 44 115 123 156
321 24 345 356 36 68 58 54 59 37 23 28 25 13 4 4 2 344 351 343 355 340 357 356 348 332 320 310 302 46 28 356 253 204 155 121 106 85 42 64 71 76 75 121
73 281 335 319 97 98 84 88 81 64 66 67 81 11 326 347 328 303 303 341 350 353 351 359 351 337 330 328 345 60 60 43 29 12 227 147 147 122 110 78 85 75 81 65
218 312 335 306 123 119 118 134 137 127 127 168 302 304 299 312 297 303 307 319 334 352 351 352 357 334 330 343 353 23 38 24 46 36 17 9 138 107 119 112 100 88 46 101
318 303 309 354 131 148 137 153 164 168 173 219 251 267 276 321 313 314 333 279 293 312 358 336 347 321 333 326 353 28 46 31 44 37 360 351 327 73 82 105 107 111 107 38
321 323 315 287 128 139 167 168 190 177 194 225 251 265 262 252 255 279 287 277 248 248 247 311 325 271 311 347 4 357 73 80 57 53 237 261 316 18 19 97 120 106 89 66
336 347 337 321 174 156 199 228 100 151 179 238 231 290 272 243 257 270 285 275 271 222 189 201 255 308 321 341 80 27 352 29 12 15 26 19 29 353 148 136 138 138 102 93
305 316 316 341 4 174 231 59 50 343 108 328 291 232 301 278 258 283 296 299 306 268 171 239 243 273 273 295 321 203 227 86 160 157 82 42 24 354 350 33 51 35 114 151
331 349 333 333 13 10 43 42 348 131 215 258 299 340 285 266 287 272 301 314 6 4 10 282 308 292 324 323 339 299 22 101 62 22 3 27 30 114 32 351 52 70 68 64
290 2 91 293 8 9 354 3 41 324 289 320 354 290 307 315 307 311 315 265 251 293 301 285 264 271 334 339 349 320 21 27 55 126 33 65 4 16 52 327 352 32 37 45
347 46 323 328 270 28 307 330 330 331 354 304 306 268 282 285 311 316 324 239 223 327 312 307 21 4 2 344 325 312 104 20 31 7 30 12 8 12 23 12 15 17 29 20
11 11 345 352 350 307 221 359 312 22 278 279 300 335 337 298 278 282 283 332 342 344 336 49 29 25 10 336 306 312 36 48 354 335 344 3 21 8 342 324 3 13 353 305
54 30 347 307 299 311 338 325 313 241 241 293 300 293 274 297 309 326 356 272 268 323 330 62 20 332 329 301 278 307 1 341 339 1 353 13 352 311 341 357 359 348 2 10
340 308 316 324 299 292 279 272 280 283 254 237 240 251 272 288 311 136 203 260 185 248 321 333 330 305 286 298 288 295 346 326 29 360 316 318 342 352 6 359 347 356 16 355
239 275 324 283 246 269 274 237 234 244 237 243 253 249 252 246 239 287 255 253 182 218 289 182 207 253 264 271 285 323 292 274 240 282 19 349 334 348 339 337 346 1 342 333
247 251 230 236 301 302 295 259 248 283 295 278 282 277 275 289 266 260 274 12 271 209 257 279 197 215 254 299 347 326 310 310 3 1 351 357 357 1 358 359 352 352 354 347
230 258 281 176 234 254 258 250 274 265 245 241 314 274 246 238 257 263 276 288 305 325 343 335 329 170 255 347 311 349 360 4 48 28 4 357 355 357 350 359 353 338 332 335